| time (UTC) | temp F | wind direction | speed knots | gust knots | rain 1hr in | rain 24hr in | rain mn in | humidity % | barometer mb |
| 20260505153207 | 72 | 326 | 1.7 | 7.0 | 0.00 | 0.01 | 0.01 | 56 | 1007.0 |
| 20260505153057 | 71 | 31 | 1.7 | 7.0 | 0.00 | 0.01 | 0.01 | 56 | 1006.4 |
| 20260505152727 | 71 | 277 | 0.9 | 12.2 | 0.00 | 0.01 | 0.01 | 53 | 1007.0 |
| 20260505152214 | 71 | 83 | 2.6 | 7.8 | 0.00 | 0.01 | 0.01 | 53 | 1007.1 |
| 20260505151707 | 71 | 159 | 0.9 | 8.7 | 0.00 | 0.01 | 0.01 | 55 | 1007.0 |
| 20260505151559 | 70 | 274 | 0.0 | 8.7 | 0.00 | 0.01 | 0.01 | 54 | 1006.5 |
| 20260505151217 | 70 | 59 | 1.7 | 6.1 | 0.00 | 0.01 | 0.01 | 54 | 1007.1 |
| 20260505150716 | 70 | 276 | 0.9 | 6.1 | 0.00 | 0.01 | 0.01 | 57 | 1007.1 |
| 20260505150211 | 69 | 195 | 2.6 | 7.0 | 0.00 | 0.01 | 0.01 | 56 | 1007.3 |
| 20260505140623 | 65 | 273 | 1.7 | 7.0 | 0.00 | 0.03 | 0.01 | 61 | 1008.1 |
| 20260505140124 | 65 | 36 | 0.0 | 8.7 | 0.00 | 0.03 | 0.01 | 61 | 1008.1 |
| 20260505130114 | 65 | 329 | 0.9 | 5.2 | 0.01 | 0.03 | 0.01 | 55 | 1008.0 |
| 20260505124644 | 64 | 157 | 0.9 | 7.8 | 0.00 | 0.02 | 0.00 | 56 | 1008.1 |
| 20260505124524 | 63 | 209 | 0.0 | 7.8 | 0.00 | 0.02 | 0.00 | 55 | 1007.6 |
| 20260505124139 | 63 | 28 | 0.9 | 7.8 | 0.00 | 0.02 | 0.00 | 57 | 1007.9 |
| 20260505123624 | 63 | 189 | 0.9 | 7.0 | 0.00 | 0.02 | 0.00 | 57 | 1007.9 |
| 20260505123134 | 63 | 283 | 0.0 | 7.0 | 0.00 | 0.02 | 0.00 | 57 | 1008.0 |
| 20260505123106 | 62 | 88 | 0.0 | 7.0 | 0.00 | 0.02 | 0.00 | 59 | 1007.6 |
| 20260505122634 | 62 | 266 | 0.0 | 3.5 | 0.00 | 0.02 | 0.00 | 57 | 1008.2 |
| 20260505122153 | 62 | 263 | 0.9 | 5.2 | 0.00 | 0.02 | 0.00 | 57 | 1008.3 |
| 20260505121612 | 62 | 25 | 0.9 | 4.3 | 0.00 | 0.02 | 0.00 | 57 | 1008.2 |
| 20260505121509 | 61 | 34 | 0.9 | 4.3 | 0.00 | 0.02 | 0.00 | 57 | 1007.8 |
| 20260505121151 | 62 | 95 | 0.9 | 7.8 | 0.00 | 0.02 | 0.00 | 58 | 1008.2 |
| 20260505120618 | 62 | 202 | 0.9 | 9.6 | 0.00 | 0.02 | 0.00 | 58 | 1008.2 |
| 20260505120123 | 62 | 259 | 1.7 | 9.6 | 0.00 | 0.02 | 0.00 | 57 | 1008.2 |
| 20260505120043 | 61 | 259 | 1.7 | 9.6 | 0.00 | 0.02 | 0.00 | 57 | 1007.8 |
| 20260505115624 | 62 | 98 | 1.7 | 9.6 | 0.00 | 0.02 | 0.00 | 58 | 1008.1 |
| 20260505115112 | 62 | 322 | 0.9 | 7.0 | 0.00 | 0.02 | 0.00 | 58 | 1007.9 |
| 20260505114643 | 62 | 268 | 0.0 | 2.6 | 0.00 | 0.02 | 0.00 | 58 | 1007.7 |
| 20260505114502 | 61 | 285 | 0.0 | 2.6 | 0.00 | 0.02 | 0.00 | 58 | 1007.2 |
| 20260505114123 | 61 | 139 | 0.0 | 5.2 | 0.00 | 0.02 | 0.00 | 58 | 1007.7 |
| 20260505113623 | 62 | 32 | 0.0 | 7.0 | 0.00 | 0.02 | 0.00 | 57 | 1007.8 |
| 20260505113126 | 62 | 193 | 0.9 | 6.1 | 0.00 | 0.02 | 0.00 | 56 | 1007.9 |
| 20260505113041 | 61 | 247 | 0.9 | 6.1 | 0.00 | 0.02 | 0.00 | 57 | 1007.5 |
| 20260505112611 | 61 | 301 | 0.0 | 5.2 | 0.00 | 0.02 | 0.00 | 57 | 1008.1 |
| 20260505112120 | 61 | 230 | 0.0 | 4.3 | 0.00 | 0.02 | 0.00 | 57 | 1008.0 |
| 20260505111629 | 61 | 313 | 0.0 | 4.3 | 0.00 | 0.02 | 0.00 | 58 | 1008.0 |
| 20260505111549 | 61 | 294 | 0.0 | 3.5 | 0.00 | 0.02 | 0.00 | 58 | 1007.6 |
| 20260505111138 | 61 | 273 | 0.0 | 9.6 | 0.00 | 0.02 | 0.00 | 58 | 1008.0 |
| 20260505110636 | 61 | 247 | 0.9 | 9.6 | 0.00 | 0.02 | 0.00 | 58 | 1008.0 |
| 20260505110123 | 61 | 266 | 0.9 | 7.8 | 0.00 | 0.02 | 0.00 | 57 | 1007.9 |
| 20260505102129 | 60 | 252 | 0.0 | 6.1 | 0.00 | 0.02 | 0.00 | 58 | 1007.6 |
| 20260505101652 | 60 | 275 | 0.9 | 7.0 | 0.00 | 0.02 | 0.00 | 57 | 1007.6 |
| 20260505101553 | 60 | 247 | 0.0 | 7.0 | 0.00 | 0.02 | 0.00 | 57 | 1007.2 |
| 20260505101134 | 61 | 175 | 0.9 | 7.0 | 0.00 | 0.02 | 0.00 | 56 | 1007.8 |
| 20260505100632 | 61 | 179 | 0.0 | 5.2 | 0.00 | 0.02 | 0.00 | 56 | 1007.8 |
| 20260505100149 | 61 | 214 | 0.9 | 5.2 | 0.00 | 0.02 | 0.00 | 55 | 1007.8 |
| 20260505100034 | 60 | 225 | 0.9 | 5.2 | 0.00 | 0.02 | 0.00 | 56 | 1007.5 |
| 20260505095610 | 61 | 269 | 0.9 | 7.8 | 0.00 | 0.05 | 0.00 | 55 | 1007.9 |
| 20260505095121 | 61 | 259 | 0.9 | 7.8 | 0.00 | 0.05 | 0.00 | 55 | 1007.7 |
| 20260505094622 | 61 | 248 | 0.9 | 9.6 | 0.00 | 0.05 | 0.00 | 56 | 1007.9 |
| 20260505094529 | 60 | 212 | 0.0 | 9.6 | 0.00 | 0.05 | 0.00 | 55 | 1007.5 |
| 20260505094121 | 61 | 325 | 1.7 | 9.6 | 0.00 | 0.05 | 0.00 | 55 | 1007.8 |
| 20260505093625 | 61 | 360 | 0.0 | 6.1 | 0.00 | 0.05 | 0.00 | 56 | 1007.9 |
| 20260505093143 | 61 | 311 | 0.9 | 9.6 | 0.00 | 0.05 | 0.00 | 55 | 1007.9 |
| 20260505093009 | 60 | 285 | 0.0 | 9.6 | 0.00 | 0.05 | 0.00 | 55 | 1007.6 |
| 20260505092630 | 61 | 294 | 1.7 | 9.6 | 0.00 | 0.05 | 0.00 | 56 | 1007.7 |
| 20260505092133 | 61 | 268 | 0.9 | 10.4 | 0.00 | 0.05 | 0.00 | 55 | 1007.9 |
| 20260505091624 | 61 | 345 | 0.9 | 10.4 | 0.00 | 0.05 | 0.00 | 56 | 1007.9 |
| 20260505091551 | 60 | 244 | 0.0 | 10.4 | 0.00 | 0.05 | 0.00 | 56 | 1007.6 |
| 20260505091127 | 60 | 30 | 0.9 | 9.6 | 0.00 | 0.05 | 0.00 | 56 | 1007.7 |
| 20260505090630 | 60 | 53 | 0.0 | 4.3 | 0.00 | 0.05 | 0.00 | 56 | 1007.7 |
| 20260505090133 | 61 | 78 | 0.9 | 4.3 | 0.00 | 0.05 | 0.00 | 57 | 1007.9 |
| 20260505090006 | 60 | 154 | 0.0 | 7.8 | 0.00 | 0.05 | 0.00 | 57 | 1007.6 |
| 20260505085628 | 61 | 120 | 0.0 | 7.8 | 0.00 | 0.05 | 0.00 | 56 | 1007.9 |
| 20260505085127 | 61 | 266 | 0.9 | 6.1 | 0.00 | 0.05 | 0.00 | 55 | 1008.1 |
| 20260505084645 | 61 | 159 | 0.9 | 6.1 | 0.00 | 0.05 | 0.00 | 56 | 1008.1 |
| 20260505084536 | 60 | 289 | 0.9 | 6.1 | 0.00 | 0.05 | 0.00 | 55 | 1007.7 |
| 20260505084128 | 61 | 195 | 0.0 | 3.5 | 0.00 | 0.05 | 0.00 | 56 | 1008.2 |
| 20260505083623 | 61 | 230 | 0.0 | 4.3 | 0.00 | 0.05 | 0.00 | 55 | 1008.3 |
| 20260505083134 | 61 | 305 | 0.0 | 7.0 | 0.00 | 0.05 | 0.00 | 55 | 1008.3 |
| 20260505083006 | 60 | 232 | 0.9 | 7.0 | 0.00 | 0.05 | 0.00 | 55 | 1008.0 |
| 20260505082610 | 61 | 334 | 0.9 | 7.0 | 0.00 | 0.05 | 0.00 | 55 | 1008.1 |
| 20260505082125 | 60 | 171 | 1.7 | 5.2 | 0.00 | 0.05 | 0.00 | 56 | 1008.3 |
| 20260505081639 | 60 | 13 | 0.0 | 6.1 | 0.00 | 0.05 | 0.00 | 57 | 1008.2 |
| 20260505081609 | 60 | 157 | 0.0 | 6.1 | 0.00 | 0.05 | 0.00 | 57 | 1008.0 |
| 20260505081125 | 60 | 340 | 0.9 | 6.1 | 0.00 | 0.05 | 0.00 | 56 | 1008.2 |
| 20260505080629 | 60 | 43 | 0.0 | 6.1 | 0.00 | 0.05 | 0.00 | 55 | 1008.1 |
| 20260505080148 | 60 | 320 | 0.9 | 6.1 | 0.00 | 0.05 | 0.00 | 56 | 1008.1 |
| 20260505080034 | 60 | 315 | 0.0 | 7.0 | 0.00 | 0.05 | 0.00 | 56 | 1007.9 |
| 20260505075621 | 60 | 311 | 0.0 | 7.0 | 0.00 | 0.05 | 0.00 | 55 | 1008.1 |
| 20260505075150 | 61 | 322 | 1.7 | 6.1 | 0.00 | 0.05 | 0.00 | 56 | 1008.1 |
| 20260505074631 | 61 | 239 | 1.7 | 5.2 | 0.00 | 0.05 | 0.00 | 54 | 1007.9 |
| 20260505074556 | 60 | 240 | 0.9 | 5.2 | 0.00 | 0.05 | 0.00 | 54 | 1007.7 |
| 20260505074120 | 61 | 323 | 0.9 | 3.5 | 0.00 | 0.05 | 0.00 | 54 | 1007.9 |
| 20260505073635 | 61 | 14 | 0.0 | 7.8 | 0.00 | 0.05 | 0.00 | 54 | 1008.1 |
| 20260505073110 | 61 | 63 | 2.6 | 7.8 | 0.00 | 0.05 | 0.00 | 53 | 1008.1 |
| 20260505073009 | 61 | 337 | 2.6 | 7.8 | 0.00 | 0.05 | 0.00 | 53 | 1008.0 |
| 20260505072649 | 61 | 264 | 0.0 | 6.1 | 0.00 | 0.05 | 0.00 | 54 | 1008.1 |
| 20260505072119 | 61 | 318 | 0.0 | 7.0 | 0.00 | 0.05 | 0.00 | 53 | 1008.1 |
| 20260505071624 | 61 | 230 | 1.7 | 7.0 | 0.00 | 0.05 | 0.00 | 53 | 1008.1 |
| 20260505071539 | 61 | 227 | 0.9 | 7.0 | 0.00 | 0.05 | 0.00 | 52 | 1007.9 |
| 20260505071127 | 61 | 263 | 0.9 | 4.3 | 0.00 | 0.05 | 0.00 | 53 | 1008.3 |
| 20260505070626 | 61 | 299 | 1.7 | 7.8 | 0.00 | 0.05 | 0.00 | 53 | 1008.3 |
| 20260505070150 | 61 | 180 | 1.7 | 7.8 | 0.00 | 0.05 | 0.00 | 53 | 1008.1 |
| 20260505065614 | 61 | 221 | 0.0 | 4.3 | 0.00 | 0.05 | 0.00 | 53 | 1008.1 |
| 20260505065104 | 61 | 309 | 0.9 | 4.3 | 0.00 | 0.05 | 0.00 | 53 | 1008.2 |
| 20260505064624 | 61 | 102 | 0.9 | 4.3 | 0.00 | 0.05 | 0.00 | 52 | 1008.3 |
| 20260505064545 | 61 | 66 | 0.0 | 4.3 | 0.00 | 0.05 | 0.00 | 52 | 1008.2 |
| 20260505064149 | 61 | 259 | 0.9 | 4.3 | 0.00 | 0.05 | 0.00 | 53 | 1008.1 |
| 20260505063638 | 61 | 101 | 0.0 | 5.2 | 0.00 | 0.05 | 0.00 | 53 | 1008.2 |
| 20260505063118 | 61 | 7 | 0.9 | 5.2 | 0.00 | 0.05 | 0.00 | 53 | 1008.2 |
| 20260505063028 | 61 | 6 | 0.0 | 7.0 | 0.00 | 0.05 | 0.00 | 53 | 1008.0 |
| 20260505062630 | 62 | 261 | 1.7 | 10.4 | 0.00 | 0.05 | 0.00 | 52 | 1008.0 |
| 20260505062128 | 61 | 214 | 1.7 | 10.4 | 0.00 | 0.05 | 0.00 | 51 | 1007.9 |
| 20260505061639 | 62 | 175 | 0.0 | 7.0 | 0.00 | 0.05 | 0.00 | 53 | 1008.0 |
| 20260505061630 | 61 | 163 | 0.0 | 7.0 | 0.00 | 0.05 | 0.00 | 51 | 1007.9 |
| 20260505060634 | 62 | 345 | 0.9 | 5.2 | 0.00 | 0.05 | 0.00 | 51 | 1008.0 |
| 20260505060121 | 61 | 255 | 0.9 | 5.2 | 0.00 | 0.05 | 0.00 | 51 | 1008.0 |
| 20260505060059 | 61 | 294 | 0.9 | 5.2 | 0.00 | 0.05 | 0.00 | 51 | 1007.9 |
| 20260505055638 | 61 | 239 | 0.9 | 4.3 | 0.00 | 0.05 | 0.00 | 53 | 1008.0 |
| 20260505055132 | 62 | 67 | 0.0 | 3.5 | 0.00 | 0.05 | 0.00 | 52 | 1008.2 |
| 20260505054612 | 62 | 13 | 0.9 | 5.2 | 0.00 | 0.05 | 0.00 | 50 | 1008.1 |
| 20260505054544 | 61 | 54 | 0.9 | 5.2 | 0.00 | 0.05 | 0.00 | 51 | 1008.0 |
| 20260505054118 | 62 | 211 | 1.7 | 9.6 | 0.00 | 0.05 | 0.00 | 51 | 1008.1 |
| 20260505053624 | 61 | 268 | 2.6 | 9.6 | 0.00 | 0.05 | 0.00 | 50 | 1008.0 |
| 20260505053135 | 61 | 15 | 0.0 | 4.3 | 0.00 | 0.05 | 0.00 | 52 | 1008.1 |
| 20260505053059 | 61 | 67 | 0.0 | 4.3 | 0.00 | 0.05 | 0.00 | 51 | 1008.1 |
| 20260505052632 | 61 | 118 | 0.0 | 3.5 | 0.00 | 0.05 | 0.00 | 52 | 1008.1 |
| 20260505052115 | 61 | 14 | 0.0 | 3.5 | 0.00 | 0.05 | 0.00 | 52 | 1008.2 |
| 20260505051629 | 61 | 221 | 0.0 | 3.5 | 0.00 | 0.05 | 0.00 | 53 | 1008.1 |
| 20260505051517 | 60 | 204 | 0.0 | 3.5 | 0.00 | 0.05 | 0.00 | 52 | 1008.1 |
| 20260505051111 | 60 | 309 | 0.9 | 3.5 | 0.00 | 0.05 | 0.00 | 53 | 1008.2 |
| 20260505050631 | 60 | 278 | 0.9 | 5.2 | 0.00 | 0.05 | 0.00 | 53 | 1008.1 |
| 20260505050116 | 60 | 180 | 0.9 | 5.2 | 0.00 | 0.05 | 0.00 | 54 | 1008.2 |
| 20260505041618 | 61 | 271 | 0.0 | 5.2 | 0.00 | 0.05 | 0.00 | 52 | 1008.2 |
| 20260505041532 | 60 | 272 | 0.0 | 5.2 | 0.00 | 0.05 | 0.00 | 54 | 1008.2 |
| 20260505041116 | 61 | 216 | 0.0 | 4.3 | 0.00 | 0.05 | 0.00 | 55 | 1008.2 |
| 20260505040700 | 61 | 272 | 0.9 | 8.7 | 0.00 | 0.05 | 0.00 | 53 | 1008.2 |
| 20260505040131 | 61 | 286 | 0.9 | 8.7 | 0.00 | 0.05 | 0.00 | 54 | 1008.2 |
| 20260505040036 | 60 | 185 | 0.0 | 8.7 | 0.00 | 0.05 | 0.00 | 51 | 1008.2 |
| 20260505035619 | 60 | 320 | 1.7 | 5.2 | 0.00 | 0.05 | 0.05 | 55 | 1008.3 |
| 20260505035143 | 60 | 80 | 0.9 | 5.2 | 0.00 | 0.05 | 0.05 | 56 | 1008.2 |
| 20260505034626 | 59 | 65 | 0.0 | 7.0 | 0.00 | 0.05 | 0.05 | 56 | 1008.2 |
| 20260505034534 | 59 | 65 | 0.0 | 7.0 | 0.00 | 0.05 | 0.05 | 58 | 1008.2 |
| 20260505034143 | 59 | 322 | 0.0 | 7.0 | 0.00 | 0.05 | 0.05 | 60 | 1008.2 |
| 20260505033619 | 58 | 232 | 0.0 | 3.5 | 0.00 | 0.05 | 0.05 | 62 | 1008.2 |
| 20260505033138 | 57 | 309 | 0.0 | 3.5 | 0.00 | 0.05 | 0.05 | 62 | 1008.3 |
| 20260505033030 | 56 | 309 | 0.0 | 3.5 | 0.00 | 0.05 | 0.05 | 62 | 1008.3 |
| 20260505032617 | 56 | 349 | 0.0 | 2.6 | 0.00 | 0.05 | 0.05 | 66 | 1008.3 |
| 20260505032133 | 56 | 295 | 0.9 | 2.6 | 0.00 | 0.05 | 0.05 | 67 | 1008.3 |
| 20260505031638 | 56 | 21 | 0.0 | 0.0 | 0.00 | 0.05 | 0.05 | 67 | 1008.3 |
| 20260505031600 | 55 | 37 | 0.0 | 0.0 | 0.00 | 0.05 | 0.05 | 68 | 1008.3 |
| 20260505031119 | 56 | 41 | 0.0 | 5.2 | 0.00 | 0.05 | 0.05 | 67 | 1008.3 |
| 20260505030657 | 56 | 95 | 0.0 | 5.2 | 0.00 | 0.05 | 0.05 | 66 | 1008.3 |
| 20260505030119 | 56 | 313 | 0.0 | 0.0 | 0.00 | 0.05 | 0.05 | 66 | 1008.4 |
| 20260505030047 | 55 | 313 | 0.0 | 0.0 | 0.00 | 0.05 | 0.05 | 67 | 1008.4 |
| 20260505025652 | 56 | 313 | 0.0 | 0.0 | 0.00 | 0.05 | 0.05 | 68 | 1008.4 |
| 20260505025129 | 56 | 316 | 0.0 | 0.0 | 0.00 | 0.05 | 0.05 | 66 | 1008.4 |
| 20260505024618 | 56 | 316 | 0.0 | 0.0 | 0.00 | 0.05 | 0.05 | 67 | 1008.5 |
| 20260505024556 | 55 | 316 | 0.0 | 0.0 | 0.00 | 0.05 | 0.05 | 67 | 1008.5 |
| 20260505024124 | 56 | 316 | 0.0 | 0.0 | 0.00 | 0.05 | 0.05 | 66 | 1008.5 |
| 20260505023621 | 56 | 316 | 0.0 | 0.0 | 0.00 | 0.05 | 0.05 | 68 | 1008.5 |
| 20260505023043 | 55 | 316 | 0.0 | 2.6 | 0.00 | 0.05 | 0.05 | 67 | 1008.7 |
| 20260505022624 | 55 | 322 | 0.0 | 2.6 | 0.00 | 0.05 | 0.05 | 67 | 1008.7 |
| 20260505022110 | 55 | 260 | 0.0 | 0.0 | 0.00 | 0.05 | 0.05 | 67 | 1008.7 |
| 20260505021628 | 55 | 261 | 0.0 | 0.0 | 0.00 | 0.05 | 0.05 | 67 | 1008.8 |
| 20260505021528 | 54 | 261 | 0.0 | 0.0 | 0.00 | 0.05 | 0.05 | 68 | 1008.9 |
| 20260505021134 | 55 | 256 | 0.0 | 0.0 | 0.00 | 0.05 | 0.05 | 67 | 1008.7 |
| 20260505020614 | 55 | 256 | 0.0 | 0.0 | 0.00 | 0.05 | 0.05 | 68 | 1008.7 |
| 20260505020126 | 55 | 256 | 0.0 | 0.0 | 0.00 | 0.05 | 0.05 | 68 | 1008.8 |
| 20260505020038 | 55 | 256 | 0.0 | 0.0 | 0.00 | 0.05 | 0.05 | 68 | 1008.9 |
| 20260505015121 | 56 | 256 | 0.0 | 0.0 | 0.00 | 0.05 | 0.05 | 66 | 1008.7 |
| 20260505014624 | 56 | 256 | 0.0 | 0.0 | 0.00 | 0.05 | 0.05 | 65 | 1008.7 |
| 20260505014517 | 55 | 256 | 0.0 | 0.0 | 0.00 | 0.05 | 0.05 | 65 | 1008.8 |
| 20260505014140 | 56 | 256 | 0.0 | 0.0 | 0.00 | 0.05 | 0.05 | 65 | 1008.7 |
| 20260505013629 | 56 | 256 | 0.0 | 0.0 | 0.00 | 0.05 | 0.05 | 64 | 1008.7 |
| 20260505013134 | 57 | 256 | 0.0 | 0.0 | 0.00 | 0.05 | 0.05 | 63 | 1008.7 |
| 20260505013001 | 56 | 256 | 0.0 | 0.0 | 0.00 | 0.05 | 0.05 | 62 | 1008.8 |
| 20260505012647 | 57 | 256 | 0.0 | 0.0 | 0.00 | 0.05 | 0.05 | 62 | 1008.6 |
| 20260505012119 | 58 | 256 | 0.0 | 0.0 | 0.00 | 0.05 | 0.05 | 61 | 1008.6 |
| 20260505011614 | 58 | 256 | 0.0 | 0.0 | 0.00 | 0.05 | 0.05 | 60 | 1008.6 |
| 20260505011536 | 57 | 256 | 0.0 | 0.0 | 0.00 | 0.05 | 0.05 | 61 | 1008.7 |
| 20260505011115 | 58 | 256 | 0.0 | 0.0 | 0.00 | 0.05 | 0.05 | 60 | 1008.6 |
| 20260505010618 | 59 | 256 | 0.0 | 0.0 | 0.00 | 0.05 | 0.05 | 57 | 1008.5 |
| 20260505010126 | 59 | 256 | 0.0 | 0.0 | 0.00 | 0.05 | 0.05 | 56 | 1008.5 |
| 20260505010033 | 59 | 256 | 0.0 | 0.0 | 0.00 | 0.05 | 0.05 | 56 | 1008.6 |
| 20260505005644 | 60 | 256 | 0.0 | 0.0 | 0.00 | 0.05 | 0.05 | 55 | 1008.4 |
| 20260505005135 | 60 | 256 | 0.0 | 0.0 | 0.00 | 0.05 | 0.05 | 55 | 1008.4 |
| 20260505004642 | 60 | 256 | 0.0 | 0.0 | 0.00 | 0.05 | 0.05 | 54 | 1008.4 |
| 20260505004538 | 60 | 256 | 0.0 | 0.0 | 0.00 | 0.05 | 0.05 | 55 | 1008.6 |
| 20260505004121 | 61 | 256 | 0.0 | 0.0 | 0.00 | 0.05 | 0.05 | 54 | 1008.4 |
| 20260505003643 | 61 | 256 | 0.0 | 0.0 | 0.00 | 0.05 | 0.05 | 53 | 1008.4 |
| 20260505003118 | 61 | 256 | 0.0 | 0.0 | 0.00 | 0.05 | 0.05 | 53 | 1008.4 |
| 20260505003027 | 60 | 256 | 0.0 | 0.0 | 0.00 | 0.05 | 0.05 | 53 | 1008.5 |
| 20260505002621 | 61 | 256 | 0.0 | 0.0 | 0.00 | 0.05 | 0.05 | 55 | 1008.3 |
| 20260505002119 | 61 | 256 | 0.0 | 0.0 | 0.00 | 0.05 | 0.05 | 56 | 1008.2 |
| 20260505001637 | 61 | 256 | 0.0 | 0.0 | 0.00 | 0.05 | 0.05 | 55 | 1008.2 |
| 20260505001556 | 60 | 256 | 0.0 | 0.0 | 0.00 | 0.05 | 0.05 | 55 | 1008.3 |
| 20260505001116 | 61 | 256 | 0.0 | 0.0 | 0.00 | 0.05 | 0.05 | 55 | 1008.1 |
| 20260505000701 | 61 | 256 | 0.0 | 0.0 | 0.00 | 0.05 | 0.05 | 54 | 1008.0 |
| 20260505000121 | 61 | 256 | 0.0 | 0.0 | 0.00 | 0.05 | 0.05 | 55 | 1008.0 |
| 20260505000055 | 61 | 256 | 0.0 | 0.0 | 0.00 | 0.05 | 0.05 | 55 | 1008.1 |
| 20260504235638 | 61 | 256 | 0.0 | 0.0 | 0.00 | 0.05 | 0.05 | 53 | 1007.9 |
| 20260504235116 | 62 | 256 | 0.0 | 0.0 | 0.00 | 0.05 | 0.05 | 53 | 1007.9 |
| 20260504234614 | 62 | 256 | 0.0 | 0.0 | 0.00 | 0.05 | 0.05 | 53 | 1007.9 |
| 20260504234536 | 61 | 256 | 0.0 | 0.0 | 0.00 | 0.05 | 0.05 | 53 | 1008.0 |
| 20260504234118 | 62 | 258 | 0.0 | 0.0 | 0.00 | 0.05 | 0.05 | 55 | 1007.8 |
| 20260504233630 | 63 | 257 | 0.0 | 0.0 | 0.00 | 0.05 | 0.05 | 54 | 1007.6 |
| 20260504233124 | 63 | 257 | 0.0 | 0.0 | 0.00 | 0.05 | 0.05 | 54 | 1007.6 |
| 20260504232617 | 63 | 218 | 0.0 | 0.0 | 0.00 | 0.05 | 0.05 | 53 | 1007.5 |
| 20260504232126 | 63 | 218 | 0.0 | 0.0 | 0.00 | 0.05 | 0.05 | 52 | 1007.5 |
| 20260504231606 | 63 | 218 | 0.0 | 0.0 | 0.00 | 0.05 | 0.05 | 50 | 1007.4 |
| 20260504231550 | 63 | 218 | 0.0 | 0.0 | 0.00 | 0.05 | 0.05 | 50 | 1007.5 |
| 20260504231112 | 63 | 232 | 0.0 | 0.0 | 0.00 | 0.05 | 0.05 | 54 | 1007.4 |
| 20260504230636 | 63 | 236 | 0.0 | 0.0 | 0.00 | 0.05 | 0.05 | 55 | 1007.3 |
| 20260504230126 | 63 | 102 | 0.0 | 0.0 | 0.00 | 0.05 | 0.05 | 58 | 1007.3 |
| 20260504230053 | 63 | 102 | 0.0 | 0.0 | 0.00 | 0.05 | 0.05 | 58 | 1007.5 |
| 20260504225623 | 64 | 127 | 0.0 | 0.0 | 0.00 | 0.05 | 0.05 | 55 | 1007.2 |
| 20260504225136 | 63 | 208 | 0.0 | 0.0 | 0.00 | 0.05 | 0.05 | 55 | 1007.1 |
| 20260504224623 | 63 | 207 | 0.0 | 0.0 | 0.00 | 0.05 | 0.05 | 56 | 1007.0 |
| 20260504224555 | 63 | 207 | 0.0 | 0.0 | 0.00 | 0.05 | 0.05 | 56 | 1007.2 |
| 20260504224151 | 63 | 190 | 0.0 | 0.0 | 0.00 | 0.05 | 0.05 | 55 | 1006.9 |
| 20260504223609 | 63 | 190 | 0.0 | 0.0 | 0.00 | 0.05 | 0.05 | 56 | 1006.9 |
| 20260504223132 | 64 | 187 | 0.0 | 0.0 | 0.00 | 0.05 | 0.05 | 58 | 1006.9 |
| 20260504223101 | 63 | 187 | 0.0 | 0.0 | 0.00 | 0.05 | 0.05 | 58 | 1007.1 |
| 20260504222624 | 64 | 184 | 0.0 | 0.0 | 0.00 | 0.05 | 0.05 | 59 | 1006.9 |
| 20260504222127 | 65 | 184 | 0.0 | 0.0 | 0.00 | 0.05 | 0.05 | 56 | 1006.9 |
| 20260504221636 | 66 | 183 | 0.0 | 0.0 | 0.00 | 0.05 | 0.05 | 55 | 1007.0 |
| 20260504221511 | 65 | 183 | 0.0 | 0.9 | 0.00 | 0.05 | 0.05 | 54 | 1007.1 |
| 20260504221136 | 66 | 183 | 0.0 | 0.9 | 0.00 | 0.05 | 0.05 | 50 | 1007.0 |
| 20260504220627 | 67 | 14 | 0.0 | 2.6 | 0.00 | 0.05 | 0.05 | 46 | 1007.0 |
| 20260504220140 | 67 | 10 | 0.0 | 2.6 | 0.00 | 0.05 | 0.05 | 45 | 1006.9 |
| 20260504220042 | 66 | 288 | 0.0 | 2.6 | 0.00 | 0.05 | 0.05 | 46 | 1007.1 |
| 20260504215610 | 67 | 275 | 0.0 | 3.5 | 0.00 | 0.05 | 0.05 | 46 | 1006.8 |
| 20260504215117 | 67 | 60 | 0.0 | 5.2 | 0.00 | 0.05 | 0.05 | 48 | 1006.9 |
| 20260504214627 | 67 | 40 | 0.9 | 5.2 | 0.00 | 0.05 | 0.05 | 45 | 1007.0 |
| 20260504214513 | 66 | 334 | 0.0 | 0.0 | 0.00 | 0.05 | 0.05 | 46 | 1007.2 |
| 20260504214137 | 67 | 339 | 0.0 | 3.5 | 0.00 | 0.05 | 0.05 | 45 | 1006.9 |
| 20260504213630 | 67 | 340 | 0.0 | 7.0 | 0.00 | 0.05 | 0.05 | 45 | 1006.7 |
| 20260504213114 | 67 | 87 | 0.0 | 7.0 | 0.00 | 0.05 | 0.05 | 46 | 1006.6 |
| 20260504213101 | 66 | 1 | 0.0 | 7.0 | 0.00 | 0.05 | 0.05 | 46 | 1006.8 |
| 20260504212620 | 66 | 44 | 0.0 | 1.7 | 0.00 | 0.05 | 0.05 | 45 | 1006.7 |
| 20260504212129 | 67 | 277 | 0.0 | 0.0 | 0.00 | 0.05 | 0.05 | 48 | 1006.6 |
| 20260504211641 | 66 | 336 | 0.0 | 0.0 | 0.00 | 0.05 | 0.05 | 45 | 1006.7 |
| 20260504211505 | 66 | 336 | 0.0 | 0.0 | 0.00 | 0.05 | 0.05 | 46 | 1006.9 |
| 20260504211121 | 66 | 336 | 0.0 | 0.0 | 0.00 | 0.05 | 0.05 | 48 | 1006.6 |
| 20260504210649 | 66 | 252 | 0.0 | 1.7 | 0.00 | 0.05 | 0.05 | 47 | 1006.7 |
| 20260504210130 | 66 | 211 | 0.0 | 1.7 | 0.00 | 0.05 | 0.05 | 45 | 1006.6 |
| 20260504210041 | 66 | 211 | 0.0 | 1.7 | 0.00 | 0.05 | 0.05 | 47 | 1006.9 |
| 20260504205628 | 66 | 306 | 0.0 | 3.5 | 0.00 | 0.05 | 0.05 | 46 | 1006.7 |
| 20260504205120 | 66 | 180 | 0.0 | 4.3 | 0.00 | 0.05 | 0.05 | 45 | 1006.7 |
| 20260504204617 | 66 | 150 | 0.9 | 4.3 | 0.00 | 0.05 | 0.05 | 47 | 1006.7 |
| 20260504204534 | 66 | 147 | 0.0 | 4.3 | 0.00 | 0.05 | 0.05 | 47 | 1007.0 |
| 20260504204114 | 66 | 297 | 0.0 | 0.9 | 0.00 | 0.05 | 0.05 | 48 | 1006.7 |
| 20260504203612 | 66 | 212 | 0.0 | 2.6 | 0.00 | 0.05 | 0.05 | 46 | 1006.7 |
| 20260504203124 | 66 | 249 | 0.0 | 2.6 | 0.00 | 0.05 | 0.05 | 46 | 1006.8 |
| 20260504203027 | 66 | 190 | 0.0 | 2.6 | 0.00 | 0.05 | 0.05 | 46 | 1007.0 |
| 20260504202625 | 67 | 287 | 0.0 | 4.3 | 0.00 | 0.05 | 0.05 | 45 | 1006.9 |
| 20260504202127 | 67 | 225 | 0.0 | 5.2 | 0.00 | 0.05 | 0.05 | 45 | 1006.9 |
| 20260504201638 | 67 | 179 | 0.9 | 5.2 | 0.00 | 0.05 | 0.05 | 47 | 1006.9 |
| 20260504201512 | 66 | 327 | 0.9 | 2.6 | 0.00 | 0.05 | 0.05 | 48 | 1007.2 |
| 20260504201110 | 66 | 147 | 0.0 | 3.5 | 0.00 | 0.05 | 0.05 | 46 | 1006.9 |
| 20260504200631 | 66 | 21 | 0.9 | 3.5 | 0.00 | 0.05 | 0.05 | 46 | 1007.1 |
| 20260504200130 | 66 | 157 | 0.0 | 6.1 | 0.00 | 0.05 | 0.05 | 48 | 1007.1 |
| 20260504200016 | 65 | 154 | 0.0 | 6.1 | 0.00 | 0.05 | 0.05 | 47 | 1007.3 |
| 20260504195614 | 66 | 232 | 0.9 | 7.0 | 0.00 | 0.05 | 0.05 | 47 | 1007.1 |
| 20260504195116 | 67 | 253 | 0.9 | 7.0 | 0.00 | 0.05 | 0.05 | 46 | 1007.1 |
| 20260504194620 | 67 | 45 | 0.9 | 7.8 | 0.00 | 0.05 | 0.05 | 47 | 1007.3 |
| 20260504194548 | 66 | 336 | 0.0 | 7.8 | 0.00 | 0.05 | 0.05 | 46 | 1007.6 |
| 20260504194123 | 67 | 351 | 1.7 | 7.8 | 0.00 | 0.05 | 0.05 | 46 | 1007.2 |
| 20260504193620 | 67 | 3 | 1.7 | 6.1 | 0.00 | 0.05 | 0.05 | 47 | 1007.3 |
| 20260504193105 | 67 | 32 | 0.0 | 2.6 | 0.00 | 0.05 | 0.05 | 46 | 1007.4 |
| 20260504193031 | 66 | 200 | 0.0 | 2.6 | 0.00 | 0.05 | 0.05 | 46 | 1007.7 |
| 20260504192122 | 66 | 345 | 1.7 | 7.0 | 0.00 | 0.05 | 0.05 | 48 | 1007.5 |
| 20260504191636 | 66 | 3 | 0.9 | 5.2 | 0.00 | 0.05 | 0.05 | 48 | 1007.5 |
| 20260504191606 | 66 | 10 | 0.9 | 5.2 | 0.00 | 0.05 | 0.05 | 46 | 1007.8 |
| 20260504191130 | 66 | 344 | 0.0 | 7.0 | 0.00 | 0.05 | 0.05 | 49 | 1007.6 |
| 20260504190622 | 66 | 55 | 0.9 | 7.0 | 0.00 | 0.05 | 0.05 | 48 | 1007.6 |
| 20260504190122 | 66 | 349 | 0.9 | 5.2 | 0.00 | 0.05 | 0.05 | 49 | 1007.7 |
| 20260504190040 | 65 | 358 | 0.9 | 5.2 | 0.00 | 0.05 | 0.05 | 49 | 1008.1 |
| 20260504185622 | 65 | 124 | 0.0 | 6.1 | 0.00 | 0.05 | 0.05 | 54 | 1007.8 |
| 20260504184637 | 65 | 181 | 0.9 | 7.0 | 0.00 | 0.05 | 0.05 | 49 | 1008.0 |
| 20260504184505 | 64 | 332 | 0.0 | 7.0 | 0.00 | 0.05 | 0.05 | 50 | 1008.4 |
| 20260504184147 | 64 | 350 | 0.0 | 7.0 | 0.00 | 0.05 | 0.05 | 55 | 1008.1 |
| 20260504183642 | 64 | 338 | 0.0 | 7.8 | 0.00 | 0.05 | 0.05 | 50 | 1008.3 |
| 20260504183134 | 63 | 178 | 1.7 | 7.8 | 0.00 | 0.05 | 0.05 | 51 | 1008.4 |
| 20260504183041 | 63 | 335 | 2.6 | 7.8 | 0.00 | 0.05 | 0.05 | 51 | 1008.8 |
| 20260504182620 | 63 | 254 | 0.0 | 6.1 | 0.00 | 0.05 | 0.05 | 52 | 1008.5 |
| 20260504182132 | 63 | 219 | 0.9 | 3.5 | 0.00 | 0.05 | 0.05 | 54 | 1008.5 |
| 20260504181640 | 62 | 28 | 0.9 | 7.8 | 0.00 | 0.05 | 0.05 | 55 | 1008.6 |
| 20260504181535 | 62 | 3 | 0.9 | 7.8 | 0.00 | 0.05 | 0.05 | 55 | 1009.0 |
| 20260504181124 | 62 | 214 | 0.0 | 7.8 | 0.00 | 0.05 | 0.05 | 55 | 1008.6 |
| 20260504180628 | 62 | 292 | 0.0 | 5.2 | 0.00 | 0.05 | 0.05 | 54 | 1008.7 |
| 20260504180144 | 61 | 242 | 0.9 | 7.0 | 0.00 | 0.05 | 0.05 | 55 | 1008.8 |
| 20260504180130 | 61 | 232 | 0.9 | 7.0 | 0.00 | 0.05 | 0.05 | 56 | 1009.2 |
| 20260504175632 | 61 | 222 | 0.9 | 7.0 | 0.00 | 0.05 | 0.05 | 56 | 1008.8 |
| 20260504175115 | 61 | 350 | 1.7 | 6.1 | 0.00 | 0.05 | 0.05 | 57 | 1008.9 |
| 20260504174620 | 61 | 353 | 1.7 | 8.7 | 0.00 | 0.05 | 0.05 | 58 | 1008.9 |
| 20260504174531 | 60 | 15 | 0.9 | 8.7 | 0.00 | 0.05 | 0.05 | 58 | 1009.4 |
| 20260504174111 | 60 | 321 | 0.0 | 8.7 | 0.00 | 0.05 | 0.05 | 60 | 1008.9 |
| 20260504173632 | 60 | 337 | 1.7 | 8.7 | 0.00 | 0.05 | 0.05 | 57 | 1009.2 |
| 20260504173111 | 60 | 315 | 1.7 | 6.1 | 0.00 | 0.05 | 0.05 | 58 | 1009.1 |
| 20260504173009 | 60 | 17 | 1.7 | 6.1 | 0.00 | 0.05 | 0.05 | 59 | 1009.5 |
| 20260504172621 | 60 | 301 | 2.6 | 6.1 | 0.00 | 0.05 | 0.05 | 59 | 1009.2 |
| 20260504172109 | 60 | 241 | 0.9 | 6.1 | 0.00 | 0.05 | 0.05 | 58 | 1009.0 |
| 20260504171621 | 59 | 311 | 0.9 | 5.2 | 0.00 | 0.05 | 0.05 | 60 | 1009.1 |
| 20260504171545 | 59 | 15 | 0.0 | 5.2 | 0.00 | 0.05 | 0.05 | 62 | 1009.6 |
| 20260504171121 | 59 | 277 | 1.7 | 6.1 | 0.00 | 0.05 | 0.05 | 62 | 1009.1 |
| 20260504170629 | 59 | 242 | 0.9 | 6.1 | 0.00 | 0.05 | 0.05 | 62 | 1009.2 |
| 20260504170125 | 58 | 225 | 0.9 | 7.8 | 0.00 | 0.05 | 0.05 | 63 | 1009.1 |
| 20260504160125 | 48 | 324 | 0.0 | 0.0 | 0.00 | 0.05 | 0.05 | 85 | 1009.9 |